Simultaneous Nadir Overpasses (SNOs) Predictions

Prediction of SNOs between NOAA-20 and AQUA Satellite Orbit:

Table of predicted SNOs for the next 14.0 days since TLE Epoch: 8/3/2024
Index Date (NOAA-20) Time (NOAA-20) Lat,Lon (NOAA-20) SZA (NOAA-20 ) Date (AQUA) Time (AQUA) Lat,Lon (AQUA) SZA (AQUA ) Distance(km) Time Diff (sec)
1 08/04/2024 17:56:00 -81.30, 16.88 108.93 08/04/2024 17:56:30 -81.31, 16.70 108.92 3.01 30
2 08/04/2024 18:46:44 81.31,-175.51 71.04 08/04/2024 18:45:51 81.31,-175.63 71.09 1.99 53
3 08/07/2024 05:59:10 81.30, 15.98 71.76 08/07/2024 05:59:42 81.30, 15.87 71.76 1.89 32
4 08/07/2024 06:49:55 -81.30,-176.62 108.25 08/07/2024 06:49:04 -81.31,-176.43 108.24 3.22 51
5 08/09/2024 18:02:21 -81.30, 14.85 107.50 08/09/2024 18:02:54 -81.29, 14.90 107.53 1.00 33
6 08/09/2024 18:53:04 81.31,-177.23 72.43 08/09/2024 18:52:14 81.31,-177.09 72.44 2.45 50
7 08/12/2024 06:05:29 81.30, 14.52 73.16 08/12/2024 06:06:02 81.31, 14.42 73.16 1.60 33
8 08/12/2024 06:56:14 -81.31,-178.00 106.86 08/12/2024 06:55:24 -81.31,-177.86 106.85 2.34 50
9 08/14/2024 18:08:40 -81.30, 13.34 106.04 08/14/2024 18:09:11 -81.30, 13.48 106.08 2.41 31



Historial Predications of SNOs between NOAA-20 and AQUA
